Content
SEND FEEDBACK

Daily
Averages
Monthly
Summary
United States of America

CHURCH CREEK, MARYLAND


Home > North America > United States > Maryland
Elevation: 0 feet     Latitude: 38 26N     Longitude: 076 08W

WEATHER
 
SELECT A DAY
Number of Records: 236,526;   Date Range: 8/30/06 - 8/30/14
 
SHARE

PRINT THIS DATA

[ ← Previous Day ]
WEATHER ALMANAC - JUNE 7, 2014
[ Next Day → ]
[ °C ]   °F
Weather ElementAverageHighLow
Temperature70.1 °F80.6 °F (3:16 pm)55.4 °F (3:15 am)
Dewpoint53.1 °F62.6 °F (7:55 am)46.4 °F (4:56 pm)
Humidity59.7 %94 % (3:15 am)30 % (4:56 pm)
Barometer29.99 in30.04 in (11:16 am)29.95 in (6:17 pm)
Wind Speed3.2 mph10.4 mph (3:56 pm)
Weather ElementAverage
Visibility10 mi
Wind DirectionSSE (141.7 °)

Weather ElementTotal
Precipitation---
Cooling Degree Days3 (Base 65)
Growing Degree Days18 (Base 50)
Averaged from 65 records on June 7, 2014
WEATHER CONDITIONS BREAKOUT
WIND DIRECTION BREAKOUT
WEATHER BY HOUR - JUNE 7, 2014
[ °C ]   °F
Local TimeTemperatureDewpointHumidityBarometerVisibilityWind DirectionWind SpeedGust SpeedPrecipitationEventsConditions
12:35 AM59.0 °F53.6 °F82 %29.98 in10.0 miCalmClear
12:55 AM59.0 °F53.6 °F82 %29.98 in10.0 miCalmClear
1:15 AM59.0 °F55.4 °F88 %29.97 in10.0 miCalmClear
1:34 AM59.0 °F55.4 °F88 %29.98 in10.0 miCalmClear
2:15 AM59.0 °F55.4 °F88 %29.97 in10.0 miCalmClear
2:55 AM57.2 °F53.6 °F88 %29.97 in10.0 miCalmClear
3:15 AM55.4 °F53.6 °F94 %29.98 in10.0 miCalmClear
3:35 AM55.4 °F51.8 °F88 %29.99 in10.0 miCalmClear
3:55 AM55.4 °F53.6 °F94 %29.99 in10.0 miCalmClear
4:15 AM55.4 °F53.6 °F94 %29.98 in10.0 miCalmClear
4:35 AM55.4 °F53.6 °F94 %29.97 in10.0 miCalmClear
4:55 AM55.4 °F53.6 °F94 %29.98 in10.0 miCalmClear
5:15 AM55.4 °F53.6 °F94 %29.98 in10.0 miCalmClear
5:35 AM55.4 °F53.6 °F94 %29.98 in10.0 miCalmClear
5:55 AM55.4 °F53.6 °F94 %29.99 in10.0 miCalmClear
6:15 AM55.4 °F53.6 °F94 %30.00 in10.0 miCalmClear
6:35 AM59.0 °F55.4 °F88 %30.00 in10.0 miCalmClear
6:55 AM59.0 °F55.4 °F88 %30.01 in10.0 miCalmClear
7:15 AM62.6 °F59.0 °F88 %30.01 in10.0 miCalmClear
7:55 AM71.6 °F62.6 °F73 %30.02 in10.0 miCalmClear
8:15 AM71.6 °F59.0 °F64 %30.02 in10.0 miNNW (330°)5.8 mphClear
8:35 AM73.4 °F59.0 °F61 %30.02 in10.0 miNNW (340°)4.6 mphClear
8:56 AM73.4 °F59.0 °F61 %30.03 in10.0 miNorth (350°)4.6 mphClear
9:36 AM77.0 °F55.4 °F47 %30.03 in10.0 miNW (320°)8.1 mphClear
9:56 AM77.0 °F53.6 °F44 %30.03 in10.0 miWNW (300°)6.9 mphClear
10:16 AM77.0 °F53.6 °F44 %30.02 in10.0 miNNW (330°)4.6 mphClear
10:36 AM77.0 °F51.8 °F41 %30.03 in10.0 miNW (320°)5.8 mphClear
10:56 AM77.0 °F53.6 °F44 %30.03 in10.0 miNW (320°)4.6 mphClear
11:16 AM78.8 °F53.6 °F42 %30.04 in10.0 miNW (320°)5.8 mphClear
11:36 AM78.8 °F50.0 °F36 %30.04 in10.0 miWNW (290°)3.5 mphClear
11:56 AM78.8 °F51.8 °F39 %30.04 in10.0 miWNW (300°)5.8 mphClear
12:15 PM78.8 °F51.8 °F39 %30.04 in10.0 miWNW (300°)8.1 mphClear
12:36 PM78.8 °F50.0 °F36 %30.04 in10.0 miNW (310°)6.9 mphClear
1:16 PM78.8 °F50.0 °F36 %30.02 in10.0 miNW (310°)8.1 mphClear
1:36 PM78.8 °F51.8 °F39 %30.01 in10.0 miWNW (290°)9.2 mphClear
1:56 PM78.8 °F48.2 °F34 %30.01 in10.0 miNW (320°)5.8 mphClear
2:16 PM78.8 °F51.8 °F39 %30.01 in10.0 miNorth (10°)8.1 mphClear
2:36 PM78.8 °F50.0 °F36 %30.00 in10.0 miNNW (340°)8.1 mphClear
2:56 PM78.8 °F51.8 °F39 %29.99 in10.0 miNNW (330°)4.6 mphClear
3:16 PM80.6 °F51.8 °F37 %29.99 in10.0 miNNW (340°)6.9 mphClear
3:36 PM78.8 °F50.0 °F36 %29.99 in10.0 miNW (320°)9.2 mphClear
3:56 PM80.6 °F50.0 °F34 %29.98 in10.0 miNNW (330°)10.4 mphClear
4:16 PM80.6 °F50.0 °F34 %29.98 in10.0 miNW (320°)9.2 mphClear
4:36 PM80.6 °F50.0 °F34 %29.97 in10.0 miNW (310°)8.1 mphClear
4:56 PM80.6 °F46.4 °F30 %29.97 in10.0 miNNW (330°)9.2 mphClear
5:16 PM80.6 °F46.4 °F30 %29.96 in10.0 miNNW (340°)8.1 mphClear
5:36 PM80.6 °F46.4 °F30 %29.96 in10.0 miNorth (350°)6.9 mphClear
5:57 PM80.6 °F46.4 °F30 %29.96 in10.0 miNorth (360°)8.1 mphClear
6:17 PM80.6 °F46.4 °F30 %29.95 in10.0 miNorth (350°)4.6 mphClear
6:37 PM80.6 °F48.2 °F32 %29.95 in10.0 miNNE (30°)4.6 mphClear
6:57 PM80.6 °F46.4 °F30 %29.96 in10.0 miCalmClear
7:17 PM78.8 °F50.0 °F36 %29.95 in10.0 miCalmClear
7:37 PM78.8 °F51.8 °F39 %29.95 in10.0 miCalmClear
7:56 PM73.4 °F55.4 °F53 %29.96 in10.0 miCalmClear
8:17 PM71.6 °F53.6 °F53 %29.96 in10.0 miCalmClear
8:37 PM71.6 °F57.2 °F60 %29.96 in10.0 miCalmClear
8:57 PM69.8 °F57.2 °F64 %29.96 in10.0 miCalmClear
9:17 PM69.8 °F57.2 °F64 %29.97 in10.0 miCalmClear
9:37 PM66.2 °F55.4 °F68 %29.98 in10.0 miCalmClear
9:57 PM64.4 °F55.4 °F73 %29.98 in10.0 miCalmClear
10:17 PM64.4 °F55.4 °F73 %29.99 in10.0 miCalmScattered Clouds
10:36 PM64.4 °F55.4 °F73 %29.99 in10.0 miCalmScattered Clouds
10:57 PM64.4 °F55.4 °F73 %29.98 in10.0 miCalmScattered Clouds
11:17 PM64.4 °F55.4 °F73 %29.99 in10.0 miCalmClear
11:37 PM62.6 °F57.2 °F82 %29.98 in10.0 miEast (100°)3.5 mphClear
Hourly data recorded from KCGE, located miles away from Church Creek, Maryland







STORIES FROM OUR PARTNERS